STARLINK-32755, 62842

Orbit data source: Space-Track

STARLINK-32755, 62842 is a payload satellite owned by SpaceX/Seattle (US) in LEO that was launched on Mon, 27 Jan 2025 UTC via an FALCON 9 launch vehicle from the Air Force Eastern Test Range (AFETR). Payload-class satellites include a variety of spacecraft equipped with specific instruments for various scientific and technological missions. These include communications satellites like Starlink; space stations such as the ISS; scientific satellites like the Hubble; Earth observation satellites from companies like Planet Labs, Umbra, and HawkEye 360; GPS; miniature CubeSats for education and research; and military/defense satellites.

Loading next visibility...
Identifier
62842, 2025-019P
Orbit
LEO
Country
Flag of USUS
Related business
Manufacturer
SpaceX/Seattle
Mission
Operational Commercial Communications
Bus & Motor
STARLINK V2M, Unknown motor
Mass
730 kg wet, ~700 kg dry
Launch date (UTC)
2025-01-27 (8 months ago)
Launch vehicle
FALCON 9
Launch site
Air Force Eastern Test Range (AFETR)
Object type
Payload
Rocket body
Debris
Shape & HBR
Box + 2 Pan, 14.5 m
Radar Cross Section
33.884 m², Large (>1 m²)

Expand to show TLE details & history
Last TLE update: 2 days ago

TLE from 2 days ago
0 STARLINK-32755
1 62842U 25019P   25260.22798442  .00021360  00000-0  78307-3 0  9992
2 62842  43.0045 341.5575 0001733 277.9247  82.1408 15.27596550 35806
Epoch: 2025-09-17T05:28Z
TLE epoch observation values (Epoch: 2025-09-17T05:28:17.853Z)
Latitude
-0.00004°
Longitude
-96.92387°
Altitude
482.613 km
Speed
7.626 km/s
True Right ascension
22h 46m 13s
True Declination
0° 00' 00"
Sunlit
Object was in full shadow at epoch
Visualization orbit readout
Latitude
Unknown
Longitude
Unknown
Altitude
Unknown
Speed
Unknown
Apparent Right ascension
Unknown
Apparent Declination
Unknown
Sunlit
N/A
Visualization observer readout
Local Sidereal Time
13:34:54
Azimuth
Unknown
Elevation
Unknown
Doppler factor
Unknown
Orbital elements
Apogee altitude
486.133 km
Perigee altitude
483.755 km
Semi-major axis
6,863.081 km
Eccentricity
0.00017
Inclination
43.0045°
RAAN
341.5575°
Arg. of periapsis
277.9247°
True anomaly
82.16047°
Mean anomaly
82.1408°
Eccentric anomaly
82.15064°
Mean motion
3.81737 °/min
Orbital period
94.31 mins
BSTAR
0.00078307
Loading maneuver chart data...
Computing Atmospheric mass density...
Loading historical data...
Loading historical data...
Loading historical data...
Loading historical data...
Loading historical data...
Loading historical data...
Loading historical data...

Documentation

Showing up to 5 results
|